Weather reports worldwide

Advertisment
Lannion, France (7118): temperature & dewpoint: 11.07.2018 15:00:00 - 17.07.2018 15:00:00 (CEST)Lannion, France (7118): wind speed & gusts: 11.07.2018 15:00:00 - 17.07.2018 15:00:00 (CEST)Lannion, France (7118): wind direction: 11.07.2018 15:00:00 - 17.07.2018 15:00:00 (CEST)Lannion, France (7118): reduced air pressure: 11.07.2018 15:00:00 - 17.07.2018 15:00:00 (CEST)Lannion, France (7118): visibility: 11.07.2018 15:00:00 - 17.07.2018 15:00:00 (CEST)Lannion, France (7118): precipitation: 11.07.2018 15:00:00 - 17.07.2018 15:00:00 (CEST)
Date & Time tt [°C] td [°C] ff [km/h] ff [kn] fx [km/h] fx [kn] dd ppp [hPa] vv [km] rr [mm]
17.07.2018 15:00:00 19,7 11,7 15 8 24 13 W 1019,5 60 0,0
17.07.2018 14:00:00 17,4 13,9 4 2 22 12 W 1019,8 48 0,2
17.07.2018 13:00:00 15,3 13,0 19 10 33 18 WSW 1020,3 9 0,2
17.07.2018 12:00:00 18,1 13,8 11 6 24 13 WNW 1019,5 51 0,0
17.07.2018 11:00:00 18,2 12,9 14 7 23 12 W 1019,3 58 0,0
17.07.2018 10:00:00 17,9 13,6 13 7 22 12 WSW 1019,0 56 0,0
17.07.2018 09:00:00 16,5 13,2 10 5 15 8 WSW 1018,9 37 0,0
17.07.2018 08:00:00 15,6 12,7 8 4 13 7 SSW 1018,8 56 0,0
17.07.2018 07:00:00 15,0 12,5 9 5 16 9 SW 1018,5 58 0,0
17.07.2018 06:00:00 14,1 12,1 9 5 14 8 SW 1018,3 57 0,0
17.07.2018 05:00:00 14,4 12,4 9 5 14 7 SW 1018,3 57 0,0
17.07.2018 04:00:00 13,6 11,8 9 5 14 8 WSW 1018,3 55 0,0
17.07.2018 03:00:00 14,3 12,3 10 5 16 8 WSW 1018,5 49 0,0
17.07.2018 02:00:00 14,8 12,8 11 6 16 9 WSW 1018,7 44 0,0
17.07.2018 01:00:00 15,3 13,1 12 6 22 12 W 1018,7 44 0,0
17.07.2018 00:00:00 15,4 12,7 13 7 22 12 W 1018,5 43 0,0
16.07.2018 23:00:00 16,4 13,5 14 7 24 13 W 1018,3 47 0,0
16.07.2018 22:00:00 16,6 13,7 16 9 24 13 W 1017,7 48 0,0
16.07.2018 21:00:00 16,8 14,1 11 6 19 11 WSW 1017,3 53 0,0
16.07.2018 20:00:00 18,2 14,1 13 7 29 15 W 1016,9 57 0,0
16.07.2018 19:00:00 18,9 13,7 18 10 33 18 WNW 1016,7 50 0,0
16.07.2018 18:00:00 19,5 14,9 22 12 34 18 WNW 1016,6 48 0,0
16.07.2018 17:00:00 19,6 15,9 23 13 35 19 W 1016,2 41 0,0
16.07.2018 16:00:00 21,7 16,0 23 12 32 17 W 1016,0 20 0,0
16.07.2018 15:00:00 22,3 14,7 18 10 29 16 W 1016,0 31 0,0
16.07.2018 14:00:00 22,0 14,9 18 10 29 15 W 1016,3 31 0,0
16.07.2018 13:00:00 19,9 15,7 16 9 26 14 W 1016,3 28 0,0
16.07.2018 12:00:00 20,0 15,4 21 11 29 16 W 1016,2 22 0,0
16.07.2018 11:00:00 19,8 16,4 16 9 26 14 W 1015,9 11 0,0
16.07.2018 10:00:00 19,0 13,2 16 8 21 11 W 1015,8 20 0,0
16.07.2018 09:00:00 17,9 13,8 10 5 13 7 WSW 1015,4 19 0,0
16.07.2018 08:00:00 15,4 13,1 5 3 8 4 SW 1015,4 20 0,0
16.07.2018 07:00:00 13,0 11,6 5 3 8 4 S 1015,6 27 0,0
16.07.2018 06:00:00 12,9 11,5 6 3 8 4 SSW 1015,6 20 0,0
16.07.2018 05:00:00 13,1 11,7 4 2 6 3 S 1015,7 20 0,0
16.07.2018 04:00:00 14,0 12,0 4 2 8 5 SSE 1015,9 19 0,0
16.07.2018 03:00:00 14,6 11,9 2 1 7 4 SSE 1015,9 16 0,0
16.07.2018 02:00:00 15,7 13,0 4 2 6 4 SSE 1016,2 20 0,0
16.07.2018 01:00:00 15,4 12,3 7 4 12 6 SE 1016,2 19 0,0
16.07.2018 00:00:00 16,9 13,4 10 5 13 7 SE 1016,6 27 0,0
15.07.2018 23:00:00 16,8 13,7 3 2 6 4 E 1016,4 16 0,0
15.07.2018 22:00:00 19,0 14,0 4 2 9 5 NNE 1016,0 41 0,0
15.07.2018 21:00:00 20,5 14,2 8 4 15 8 N 1015,8 43 0,0
15.07.2018 20:00:00 21,2 13,9 11 6 20 11 N 1015,5 46 0,0
15.07.2018 19:00:00 21,5 13,1 14 8 22 12 N 1015,9 60 0,0
15.07.2018 18:00:00 21,9 13,5 14 7 29 16 N 1016,1 50 0,0
15.07.2018 17:00:00 21,7 13,1 17 9 28 15 N 1016,5 42 0,0
15.07.2018 16:00:00 21,8 12,9 18 10 29 15 NNE 1016,6 46 0,0
15.07.2018 15:00:00 21,3 12,4 20 11 27 15 N 1016,7 19 0,0
15.07.2018 14:00:00 21,6 14,3 18 10 27 15 N 1016,9 20 0,0
15.07.2018 13:00:00 23,0 14,0 13 7 19 10 N 1017,0 60 0,0
15.07.2018 12:00:00 23,4 12,7 8 4 18 10 ESE 1017,3 53 0,0
15.07.2018 11:00:00 22,1 13,2 10 6 18 10 E 1017,4 20 0,0
15.07.2018 10:00:00 19,8 13,9 8 4 13 7 E 1017,7 10 0,0
15.07.2018 09:00:00 15,0 14,5 4 2 6 3 ESE 1018,1 8 0,0
15.07.2018 08:00:00 12,1 11,6 3 2 9 5 SSE 1018,3 0,3 0,0
15.07.2018 07:00:00 10,9 10,4 7 4 10 5 SE 1018,1 0,2 0,2
15.07.2018 06:00:00 10,6 10,0 0 0 3 2 N 1018,1 9 0,0
15.07.2018 05:00:00 11,0 10,2 0 0 5 3 N 1018,4 5 0,0
15.07.2018 04:00:00 11,5 10,7 0 0 4 2 N 1018,5 2,0 0,0
15.07.2018 03:00:00 12,2 11,3 3 1 7 4 SE 1019,0 5 0,0
15.07.2018 02:00:00 12,9 12,1 4 2 5 3 SE 1019,4 1,6 0,0
15.07.2018 01:00:00 13,3 12,4 0 0 2 1 N 1019,7 4,0 0,0
15.07.2018 00:00:00 13,9 12,5 0 0 5 3 N 1019,6 6 0,0
14.07.2018 23:00:00 15,9 13,9 3 1 9 5 NNE 1019,7 11 0,0
14.07.2018 22:00:00 17,2 13,3 6 3 14 7 NNE 1019,5 18 0,0
14.07.2018 21:00:00 18,5 12,9 10 5 16 8 N 1019,6 20 0,0
14.07.2018 20:00:00 19,3 13,0 11 6 22 12 N 1019,6 45 0,0
14.07.2018 19:00:00 19,2 13,1 16 9 24 13 N 1019,8 20 0,0
14.07.2018 18:00:00 20,0 13,5 17 9 27 15 N 1020,0 20 0,0
14.07.2018 17:00:00 20,3 12,5 16 8 25 13 NNE 1020,2 19 0,0
14.07.2018 16:00:00 20,6 13,1 18 10 26 14 N 1020,5 37 0,0
14.07.2018 15:00:00 20,9 13,8 14 7 23 13 N 1020,8 35 0,0
14.07.2018 14:00:00 21,3 13,7 14 8 22 12 N 1021,0 29 0,0
14.07.2018 13:00:00 20,8 13,7 12 6 23 12 N 1021,1 20 0,0
14.07.2018 12:00:00 21,0 14,4 8 5 16 9 NNE 1021,3 19 0,0
14.07.2018 11:00:00 20,4 14,7 9 5 16 9 NNE 1021,3 18 0,0
14.07.2018 10:00:00 19,9 15,9 4 2 11 6 NE 1021,3 10 0,0
14.07.2018 09:00:00 17,5 16,4 0 0 6 3 N 1021,6 8 0,0
14.07.2018 08:00:00 13,5 13,0 3 2 8 5 SSE 1021,7 8 0,2
14.07.2018 07:00:00 11,0 10,5 0 0 0 0 N 1021,6 0,6 0,0
14.07.2018 06:00:00 11,1 10,6 0 0 4 2 N 1021,6 0,6 0,0
14.07.2018 05:00:00 11,8 11,3 4 2 6 3 SSE 1021,6 0,1 0,0
14.07.2018 04:00:00 12,5 11,9 2 1 4 2 SE 1021,9 4,2 0,0
14.07.2018 03:00:00 12,4 11,8 0 0 6 3 N 1022,2 2,2 0,0
14.07.2018 02:00:00 12,8 12,2 0 0 3 1 N 1022,6 0,3 0,2
14.07.2018 01:00:00 13,8 12,9 0 0 8 4 N 1022,8 0,1 0,0
14.07.2018 00:00:00 15,3 14,3 0 0 7 4 N 1023,0 3,2 0,0
13.07.2018 23:00:00 16,0 14,7 4 2 10 6 NE 1022,6 7 0,0
13.07.2018 22:00:00 16,8 14,6 8 4 16 9 N 1021,9 12 0,0
13.07.2018 21:00:00 18,0 14,7 9 5 24 13 NNE 1021,4 15 0,0
13.07.2018 20:00:00 18,3 14,2 17 9 26 14 N 1021,3 20 0,0
13.07.2018 19:00:00 18,7 14,0 16 9 29 16 NNE 1021,5 19 0,0
13.07.2018 18:00:00 18,9 14,0 17 9 26 14 N 1021,7 18 0,0
13.07.2018 17:00:00 18,9 13,7 19 10 30 16 N 1022,0 18 0,0
13.07.2018 16:00:00 19,3 14,1 19 11 28 15 N 1022,1 20 0,0
13.07.2018 15:00:00 20,2 14,1 19 11 28 15 N 1022,1 46 0,0
13.07.2018 14:00:00 20,8 14,2 16 9 24 13 N 1022,1 20 0,0
13.07.2018 13:00:00 20,4 13,6 13 7 20 11 NNE 1022,0 47 0,0
13.07.2018 12:00:00 20,6 13,3 11 6 18 10 N 1021,9 30 0,0
13.07.2018 11:00:00 20,9 14,3 4 2 13 7 NNE 1021,8 18 0,0
13.07.2018 10:00:00 18,1 15,5 4 2 13 7 ESE 1022,2 13 0,0
13.07.2018 09:00:00 15,5 14,4 6 3 12 6 E 1022,4 1,8 0,0
13.07.2018 08:00:00 13,9 12,9 0 0 4 2 N 1022,0 16 0,0
13.07.2018 07:00:00 11,3 10,4 0 0 5 3 N 1022,1 18 0,0
13.07.2018 06:00:00 11,5 10,6 0 0 4 2 N 1021,9 15 0,0
13.07.2018 05:00:00 11,7 10,8 2 1 5 3 S 1021,9 8 0,0
13.07.2018 04:00:00 11,9 10,8 0 0 2 1 N 1022,3 8 0,0
13.07.2018 03:00:00 12,2 10,8 0 0 3 2 N 1022,2 17 0,0
13.07.2018 02:00:00 13,0 11,7 0 0 3 2 N 1022,2 15 0,0
13.07.2018 01:00:00 13,3 11,4 0 0 4 2 N 1022,3 18 0,0
13.07.2018 00:00:00 13,4 10,9 0 0 5 3 N 1022,3 20 0,0
12.07.2018 23:00:00 15,8 11,0 0 0 10 5 N 1022,0 20 0,0
12.07.2018 22:00:00 17,1 11,4 4 2 16 8 NNE 1021,5 56 0,0
12.07.2018 21:00:00 18,4 11,7 10 5 19 11 N 1021,5 49 0,0
12.07.2018 20:00:00 19,6 11,9 14 8 21 11 N 1021,3 45 0,0
12.07.2018 19:00:00 20,2 11,9 15 8 23 12 N 1021,2 60 0,0
12.07.2018 18:00:00 21,0 11,3 16 8 23 13 N 1021,2 60 0,0
12.07.2018 17:00:00 21,3 11,9 15 8 24 13 NNE 1021,4 57 0,0
12.07.2018 16:00:00 21,5 12,3 13 7 22 12 N 1021,5 20 0,0
12.07.2018 15:00:00 22,0 12,8 11 6 23 13 N 1021,5 55 0,0
12.07.2018 14:00:00 20,8 13,2 15 8 24 13 NNE 1021,6 19 0,0
12.07.2018 13:00:00 20,7 14,6 16 9 22 12 N 1021,6 19 0,0
12.07.2018 12:00:00 21,4 15,2 10 5 17 9 NNE 1021,3 20 0,0
12.07.2018 11:00:00 21,2 13,1 8 4 16 8 E 1021,1 20 0,0
12.07.2018 10:00:00 19,5 13,2 8 4 13 7 ESE 1021,1 20 0,0
12.07.2018 09:00:00 17,5 14,9 3 2 9 5 SE 1021,1 12 0,0
12.07.2018 08:00:00 15,3 14,5 6 3 10 5 ESE 1020,8 6 0,0
12.07.2018 07:00:00 13,9 13,3 0 0 8 4 N 1020,7 4,3 0,0
12.07.2018 06:00:00 13,4 12,5 4 2 6 4 E 1020,9 4,1 0,2
12.07.2018 05:00:00 13,4 12,0 0 0 6 3 N 1020,9 8 0,0
12.07.2018 04:00:00 14,6 12,8 3 1 9 5 ENE 1020,8 14 0,0
12.07.2018 03:00:00 14,7 13,2 4 2 9 5 NE 1021,2 14 0,0
12.07.2018 02:00:00 14,9 13,9 3 2 9 5 NNE 1021,3 9 0,0
12.07.2018 01:00:00 14,9 13,9 2 1 11 6 - 1021,2 8 0,0
12.07.2018 00:00:00 15,3 14,2 6 3 10 6 N 1021,2 8 0,0
11.07.2018 23:00:00 15,7 14,1 6 4 19 10 N 1021,0 12 0,0
11.07.2018 22:00:00 16,5 13,8 14 8 23 12 N 1020,4 20 0,0
11.07.2018 21:00:00 17,6 13,3 15 8 24 13 NNE 1020,5 16 0,0
11.07.2018 20:00:00 18,3 12,3 14 8 27 15 NNE 1020,6 12 0,0
11.07.2018 19:00:00 18,8 11,4 19 11 27 15 N 1020,8 8 0,0
11.07.2018 18:00:00 19,5 10,5 13 7 31 17 NNE 1021,0 9 0,0
11.07.2018 17:00:00 20,0 11,0 16 9 32 17 NNE 1021,1 7 0,0
11.07.2018 16:00:00 20,3 12,3 19 11 32 17 N 1021,2 7 0,0
11.07.2018 15:00:00 20,6 12,8 19 11 34 19 NNE 1021,5 8 0,0

tt = temperature
td = dewpoint
ff = wind speed
fx = gusts
dd = wind direction
ppp = reduced air pressure
vv = visibility
rr = precipitation

Next stations